Location: Boda
(47.1872°N, 9.5454°E)
Time: 08:45:14
(UTC+00:00)

Cosmos 2278 - Pass Details

Date: 14 May 2021
Orbit: 841 x 852 km, 71.1° (Epoch: 16 June)

Event Time Altitude Azimuth Distance (km) Brightness Sun altitude
Exits shadow 02:10:05 16° 197° (SSW) 2,058 5.2 -13.7°
Maximum altitude 02:14:38 75° 114° (ESE) 883 3.8 -13.2°
Drops below altitude 10° 02:20:21 10° 30° (NNE) 2,487 7.5 -12.5°
Sets 02:22:48 0° 29° (NNE) 3,426 8.5 -12.2°
